User: anonymous   Login
Location: The Jewett Observatory
(46.7288°N, 117.1525°W)
Time: 17:01:14
(UTC-07:00)
Language:

Cosmos 1844 Rocket - Orbit

View from above orbital plane
View from above orbital plane
View from above satellite
View from above satellite

Ground track
Ground track

The orbit data is extracted from the following two-line orbital elements,

1 17974U 87041B   15148.20296521  .00000025  00000-0  36311-4 0  9999
2 17974 071.0096 052.0271 0011776 102.3138 007.5989 14.17167439450280
Epoch (UTC): 28 May 2015 04:52:16
Eccentricity: 0.0011776
inclination: 71.0096°
perigee height: 826 km
apogee height: 843 km
right ascension of ascending node: 52.0271°
argument of perigee: 102.3138°
revolutions per day: 14.17167439
mean anomaly at epoch: 7.5989°
orbit number at epoch: 45028

The dashed part of the orbit path shows where the satellite is in the earth's shadow,  

DLR